Time,TemperatureF,DewpointF,PressureIn,WindDirection,WindDirectionDegrees,WindSpeedMPH,WindSpeedGustMPH,Humidity,HourlyPrecipIn,Conditions,Clouds,dailyrainin,SoftwareType,DateUTC
2013-04-08 00:05:00,39.9,33.3,29.92,ESE,109,0.9,3.0,69,0.00,NA,NA,0.00,meteo_script,2013-04-08 05:05:00,
2013-04-08 00:35:00,39.1,32.6,29.91,East,79,2.0,4.0,70,0.00,NA,NA,0.00,meteo_script,2013-04-08 05:35:00,
2013-04-08 01:05:00,38.6,32.4,29.90,ESE,111,0.4,3.0,71,0.00,NA,NA,0.00,meteo_script,2013-04-08 06:05:00,
2013-04-08 01:35:00,38.4,32.2,29.89,East,98,2.8,7.0,71,0.00,NA,NA,0.00,meteo_script,2013-04-08 06:35:00,
2013-04-08 02:05:00,38.6,32.4,29.89,ESE,111,2.7,5.0,71,0.00,NA,NA,0.00,meteo_script,2013-04-08 07:05:00,
2013-04-08 02:35:00,38.6,32.4,29.87,ESE,102,2.8,6.0,71,0.00,NA,NA,0.00,meteo_script,2013-04-08 07:35:00,
2013-04-08 03:05:00,38.8,32.4,29.86,ESE,108,2.7,6.0,70,0.00,NA,NA,0.00,meteo_script,2013-04-08 08:05:00,
2013-04-08 03:35:00,38.7,32.5,29.83,ESE,102,2.5,5.0,71,0.00,NA,NA,0.00,meteo_script,2013-04-08 08:35:00,
2013-04-08 04:05:00,38.8,32.6,29.82,North,0,0.0,0.0,71,0.00,NA,NA,0.00,meteo_script,2013-04-08 09:05:00,
2013-04-08 04:35:00,38.9,32.7,29.81,North,0,0.0,0.0,71,0.00,NA,NA,0.00,meteo_script,2013-04-08 09:35:00,
2013-04-08 05:05:00,39.1,33.0,29.79,East,82,0.3,3.0,71,0.00,NA,NA,0.00,meteo_script,2013-04-08 10:05:00,
2013-04-08 05:35:00,39.6,33.6,29.77,ENE,72,1.2,3.0,72,0.00,NA,NA,0.00,meteo_script,2013-04-08 10:35:00,
2013-04-08 06:05:00,40.5,34.4,29.76,East,96,1.5,3.0,71,0.00,NA,NA,0.00,meteo_script,2013-04-08 11:05:00,
2013-04-08 06:35:00,41.3,35.2,29.74,ENE,78,0.6,3.0,72,0.02,NA,NA,0.01,meteo_script,2013-04-08 11:35:00,
2013-04-08 07:05:00,41.2,36.8,29.73,North,0,0.0,0.0,79,0.04,NA,NA,0.03,meteo_script,2013-04-08 12:05:00,
2013-04-08 07:35:00,41.0,36.8,29.72,ENE,63,0.7,2.0,80,0.06,NA,NA,0.06,meteo_script,2013-04-08 12:35:00,
2013-04-08 08:05:00,41.1,37.4,29.71,NE,52,1.7,3.0,82,0.24,NA,NA,0.18,meteo_script,2013-04-08 13:05:00,
2013-04-08 08:35:00,40.9,37.6,29.72,NE,42,1.9,4.0,84,0.34,NA,NA,0.35,meteo_script,2013-04-08 13:35:00,
2013-04-08 09:05:00,40.3,37.3,29.70,NNE,30,3.2,6.0,85,0.24,NA,NA,0.47,meteo_script,2013-04-08 14:05:00,
2013-04-08 09:35:00,40.4,37.8,29.69,North,5,7.6,12.0,87,0.14,NA,NA,0.54,meteo_script,2013-04-08 14:35:00,
2013-04-08 10:05:00,40.3,37.7,29.69,North,1,6.0,10.0,87,0.12,NA,NA,0.60,meteo_script,2013-04-08 15:05:00,
2013-04-08 10:35:00,40.9,38.3,29.66,North,5,4.8,7.0,87,0.06,NA,NA,0.63,meteo_script,2013-04-08 15:35:00,
2013-04-08 11:05:00,42.5,39.8,29.69,NW,326,3.9,7.0,87,0.00,NA,NA,0.63,meteo_script,2013-04-08 16:05:00,
2013-04-08 11:35:00,46.4,43.9,29.72,NNW,330,2.8,4.0,88,0.00,NA,NA,0.63,meteo_script,2013-04-08 16:35:00,
2013-04-08 12:05:00,50.0,46.1,29.74,WNW,301,2.2,5.0,82,0.00,NA,NA,0.63,meteo_script,2013-04-08 17:05:00,
2013-04-08 12:35:00,50.6,46.1,29.76,North,3,2.2,4.0,79,0.00,NA,NA,0.63,meteo_script,2013-04-08 17:35:00,
2013-04-08 13:05:00,54.9,48.5,29.77,North,0,2.2,4.0,73,0.00,NA,NA,0.63,meteo_script,2013-04-08 18:05:00,
2013-04-08 13:35:00,58.1,49.4,29.78,North,3,5.2,7.0,65,0.00,NA,NA,0.63,meteo_script,2013-04-08 18:35:00,
2013-04-08 14:05:00,59.0,48.9,29.78,North,4,5.8,8.0,61,0.00,NA,NA,0.63,meteo_script,2013-04-08 19:05:00,
2013-04-08 14:35:00,61.1,50.4,29.80,North,7,3.4,5.0,60,0.00,NA,NA,0.63,meteo_script,2013-04-08 19:35:00,
2013-04-08 15:05:00,63.0,50.5,29.80,North,8,3.1,4.0,55,0.00,NA,NA,0.63,meteo_script,2013-04-08 20:05:00,
2013-04-08 15:35:00,63.8,50.3,29.80,ENE,63,0.0,1.0,53,0.00,NA,NA,0.63,meteo_script,2013-04-08 20:35:00,
2013-04-08 16:05:00,61.3,50.6,29.80,ENE,60,1.5,2.0,60,0.00,NA,NA,0.63,meteo_script,2013-04-08 21:05:00,
2013-04-08 16:35:00,62.5,51.2,29.81,East,83,2.6,4.0,58,0.00,NA,NA,0.63,meteo_script,2013-04-08 21:35:00,
2013-04-08 17:05:00,63.3,50.8,29.82,ENE,66,1.9,3.0,55,0.00,NA,NA,0.63,meteo_script,2013-04-08 22:05:00,
2013-04-08 17:35:00,62.4,50.5,29.83,ENE,57,3.6,5.0,57,0.00,NA,NA,0.63,meteo_script,2013-04-08 22:35:00,
2013-04-08 18:05:00,60.7,50.0,29.85,East,79,1.5,2.0,60,0.00,NA,NA,0.63,meteo_script,2013-04-08 23:05:00,
2013-04-08 18:35:00,58.8,48.9,29.86,ENE,71,1.8,3.0,62,0.00,NA,NA,0.63,meteo_script,2013-04-08 23:35:00,
2013-04-08 19:05:00,57.0,48.1,29.88,ENE,76,2.2,3.0,65,0.00,NA,NA,0.63,meteo_script,2013-04-09 00:05:00,
2013-04-08 19:35:00,55.0,47.0,29.89,ENE,72,1.8,5.0,67,0.00,NA,NA,0.63,meteo_script,2013-04-09 00:35:00,
2013-04-08 20:05:00,52.5,45.6,29.90,ENE,64,0.8,2.0,71,0.00,NA,NA,0.63,meteo_script,2013-04-09 01:05:00,
2013-04-08 20:35:00,50.1,44.1,29.93,ENE,60,1.3,6.0,74,0.00,NA,NA,0.63,meteo_script,2013-04-09 01:35:00,
2013-04-08 21:05:00,48.5,43.1,29.95,NE,43,1.4,3.0,76,0.00,NA,NA,0.63,meteo_script,2013-04-09 02:05:00,
2013-04-08 21:35:00,47.4,42.8,29.96,ENE,60,2.9,6.0,79,0.00,NA,NA,0.63,meteo_script,2013-04-09 02:35:00,
2013-04-08 22:05:00,46.8,42.5,29.97,NE,52,0.8,3.0,80,0.00,NA,NA,0.63,meteo_script,2013-04-09 03:05:00,
2013-04-08 22:35:00,46.5,42.4,29.99,NE,47,1.3,3.0,81,0.00,NA,NA,0.63,meteo_script,2013-04-09 03:35:00,
2013-04-08 23:05:00,46.1,42.3,29.99,North,0,0.0,0.0,82,0.00,NA,NA,0.63,meteo_script,2013-04-09 04:05:00,
2013-04-08 23:35:00,46.0,42.2,30.00,NNE,22,2.3,4.0,82,0.00,NA,NA,0.63,meteo_script,2013-04-09 04:35:00,